Radiation Dose at Monitoring Post of Fukushima Daini Nuclear Power Station
Date,Time,MP-1(microSv/h),MP-2(microSv/h),MP-3(microSv/h),MP-4(microSv/h),MP-5(microSv/h),MP-6(microSv/h),MP-7(microSv/h),Wind Direction,Wind Velocity(m/s),Rain
2018/06/10,00:00,0.324,0.204,0.330,0.318,0.300,0.161,0.098,north,4.5,No
2018/06/10,00:10,0.323,0.204,0.330,0.316,0.302,0.161,0.098,north,3.3,Yes
2018/06/10,00:20,0.323,0.202,0.330,0.316,0.301,0.163,0.098,north-northeast,2.9,Yes
2018/06/10,00:30,0.324,0.204,0.329,0.316,0.301,0.161,0.099,northeast,3.1,No
2018/06/10,00:40,0.324,0.202,0.330,0.316,0.301,0.162,0.098,north-northeast,2.9,No
2018/06/10,00:50,0.325,0.204,0.332,0.317,0.300,0.162,0.099,northeast,2.2,Yes
2018/06/10,01:00,0.322,0.203,0.329,0.317,0.303,0.162,0.099,northeast,2.7,No
2018/06/10,01:10,0.324,0.204,0.331,0.317,0.302,0.162,0.099,northeast,2.3,Yes
2018/06/10,01:20,0.321,0.203,0.329,0.316,0.303,0.162,0.099,north-northeast,3.1,Yes
2018/06/10,01:30,0.324,0.204,0.331,0.317,0.301,0.161,0.099,north,3.4,Yes
2018/06/10,01:40,0.322,0.204,0.329,0.315,0.304,0.163,0.099,north-northeast,3.2,Yes
2018/06/10,01:50,0.326,0.204,0.332,0.317,0.299,0.163,0.100,north-northeast,3.3,Yes
2018/06/10,02:00,0.323,0.204,0.328,0.314,0.304,0.163,0.100,north-northeast,3.9,Yes
2018/06/10,02:10,0.325,0.205,0.332,0.317,0.301,0.164,0.100,northeast,3.8,Yes
2018/06/10,02:20,0.321,0.203,0.329,0.315,0.304,0.163,0.101,northeast,3.8,Yes
2018/06/10,02:30,0.326,0.204,0.333,0.317,0.301,0.165,0.102,northeast,3.6,Yes
2018/06/10,02:40,0.323,0.203,0.329,0.314,0.302,0.165,0.102,northeast,5.5,Yes
2018/06/10,02:50,0.325,0.204,0.330,0.315,0.301,0.165,0.103,northeast,5.7,Yes
2018/06/10,03:00,0.323,0.205,0.327,0.315,0.303,0.164,0.102,northeast,6.0,Yes
2018/06/10,03:10,0.324,0.204,0.331,0.317,0.300,0.166,0.102,northeast,6.0,Yes
2018/06/10,03:20,0.322,0.205,0.328,0.313,0.304,0.164,0.101,northeast,5.5,Yes
2018/06/10,03:30,0.323,0.204,0.328,0.315,0.300,0.163,0.101,northeast,6.0,Yes
2018/06/10,03:40,0.322,0.205,0.328,0.312,0.302,0.162,0.099,northeast,4.6,Yes
2018/06/10,03:50,0.324,0.203,0.329,0.313,0.298,0.162,0.100,northeast,6.3,No
2018/06/10,04:00,0.322,0.203,0.327,0.312,0.301,0.162,0.099,northeast,5.3,No
2018/06/10,04:10,0.324,0.202,0.328,0.313,0.298,0.160,0.098,east-northeast,4.7,No
2018/06/10,04:20,0.321,0.204,0.327,0.312,0.300,0.160,0.098,northeast,4.3,No
2018/06/10,04:30,0.323,0.201,0.328,0.313,0.298,0.160,0.098,northeast,3.5,No
2018/06/10,04:40,0.321,0.201,0.325,0.311,0.299,0.159,0.098,east-northeast,4.7,No
2018/06/10,04:50,0.323,0.202,0.326,0.312,0.297,0.160,0.097,east-northeast,5.5,No
2018/06/10,05:00,0.321,0.202,0.326,0.311,0.299,0.159,0.097,east-northeast,5.1,No
2018/06/10,05:10,0.323,0.204,0.328,0.312,0.296,0.158,0.097,east-northeast,5.6,No
2018/06/10,05:20,0.321,0.200,0.325,0.312,0.298,0.158,0.098,east-northeast,4.1,No
2018/06/10,05:30,0.322,0.202,0.327,0.313,0.295,0.159,0.097,east-northeast,4.9,No
2018/06/10,05:40,0.322,0.201,0.325,0.310,0.298,0.158,0.097,east-northeast,5.6,No
2018/06/10,05:50,0.323,0.200,0.327,0.311,0.298,0.159,0.097,east-northeast,4.9,No
2018/06/10,06:00,0.320,0.201,0.325,0.310,0.299,0.159,0.096,east-northeast,4.6,No
2018/06/10,06:10,0.323,0.201,0.326,0.311,0.297,0.159,0.096,east,5.3,No
2018/06/10,06:20,0.321,0.201,0.325,0.311,0.297,0.158,0.098,east,3.7,No
2018/06/10,06:30,0.323,0.202,0.328,0.312,0.297,0.158,0.097,east,3.2,No
2018/06/10,06:40,0.320,0.200,0.324,0.310,0.297,0.158,0.097,east,3.9,No
2018/06/10,06:50,0.323,0.202,0.327,0.312,0.297,0.159,0.096,east,5.5,Yes
2018/06/10,07:00,0.320,0.201,0.324,0.310,0.296,0.158,0.097,east,5.2,Yes
2018/06/10,07:10,0.324,0.202,0.327,0.311,0.298,0.158,0.097,east,4.5,Yes
2018/06/10,07:20,0.320,0.201,0.325,0.309,0.296,0.159,0.097,east,3.4,Yes
2018/06/10,07:30,0.324,0.201,0.327,0.312,0.300,0.157,0.097,east,2.3,No
2018/06/10,07:40,0.322,0.201,0.325,0.310,0.296,0.160,0.098,east,3.1,No
2018/06/10,07:50,0.323,0.202,0.327,0.312,0.299,0.158,0.098,east,2.9,No
2018/06/10,08:00,0.322,0.202,0.325,0.310,0.296,0.159,0.098,east-southeast,3.7,No
2018/06/10,08:10,0.322,0.201,0.327,0.313,0.301,0.158,0.098,east,2.1,Yes
2018/06/10,08:20,0.323,0.202,0.325,0.311,0.297,0.160,0.098,east-southeast,4.8,Yes
2018/06/10,08:30,0.323,0.202,0.328,0.312,0.301,0.160,0.099,east,6.6,Yes
2018/06/10,08:40,0.325,0.203,0.326,0.313,0.299,0.161,0.100,east-southeast,5.2,Yes
2018/06/10,08:50,0.323,0.203,0.328,0.315,0.300,0.161,0.100,east-southeast,5.5,Yes
2018/06/10,09:00,0.326,0.204,0.328,0.313,0.299,0.162,0.100,southeast,6.4,Yes
2018/06/10,09:10,0.325,0.204,0.330,0.315,0.302,0.162,0.102,southeast,6.5,Yes
2018/06/10,09:20,0.325,0.205,0.327,0.313,0.299,0.162,0.103,southeast,7.4,Yes
2018/06/10,09:30,0.326,0.204,0.329,0.316,0.302,0.162,0.102,southeast,6.5,Yes
2018/06/10,09:40,0.323,0.206,0.327,0.311,0.299,0.163,0.103,southeast,6.0,Yes
2018/06/10,09:50,0.325,0.203,0.326,0.313,0.302,0.162,0.102,southeast,6.6,Yes
2018/06/10,10:00,0.324,0.204,0.329,0.312,0.299,0.162,0.102,southeast,6.9,Yes
2018/06/10,10:10,0.325,0.203,0.327,0.314,0.302,0.161,0.101,southeast,6.5,Yes
2018/06/10,10:20,0.323,0.205,0.328,0.310,0.297,0.161,0.100,southeast,6.6,Yes
2018/06/10,10:30,0.324,0.204,0.326,0.313,0.300,0.160,0.100,south-southeast,5.9,Yes
2018/06/10,10:40,0.323,0.205,0.328,0.310,0.298,0.160,0.100,south-southeast,6.2,Yes
2018/06/10,10:50,0.322,0.205,0.325,0.314,0.301,0.161,0.101,south-southeast,5.6,Yes
2018/06/10,11:00,0.324,0.204,0.328,0.312,0.296,0.162,0.101,southeast,4.8,Yes
2018/06/10,11:10,0.323,0.205,0.325,0.313,0.301,0.162,0.101,southeast,6.3,Yes
2018/06/10,11:20,0.323,0.203,0.327,0.312,0.298,0.161,0.101,southeast,6.3,No
2018/06/10,11:30,0.321,0.204,0.325,0.312,0.300,0.161,0.099,south-southeast,5.6,No
2018/06/10,11:40,0.321,0.202,0.325,0.311,0.296,0.161,0.099,south-southeast,2.9,No
2018/06/10,11:50,0.320,0.202,0.323,0.311,0.298,0.158,0.098,southeast,3.9,No
2018/06/10,12:00,0.320,0.200,0.324,0.310,0.296,0.159,0.098,southeast,3.8,Yes
2018/06/10,12:10,0.319,0.201,0.321,0.310,0.297,0.159,0.098,south-southeast,3.0,No
2018/06/10,12:20,0.319,0.199,0.322,0.309,0.297,0.159,0.099,southeast,4.6,No
2018/06/10,12:30,0.318,0.200,0.321,0.309,0.295,0.160,0.097,southeast,3.6,No
2018/06/10,12:40,0.321,0.200,0.322,0.308,0.298,0.158,0.098,east-southeast,3.3,No
2018/06/10,12:50,0.316,0.200,0.321,0.309,0.294,0.158,0.097,southeast,2.3,No
2018/06/10,13:00,0.320,0.199,0.323,0.307,0.298,0.157,0.098,southeast,2.3,No
2018/06/10,13:10,0.318,0.200,0.321,0.310,0.294,0.158,0.097,southeast,3.1,No
2018/06/10,13:20,0.319,0.198,0.322,0.308,0.297,0.158,0.097,east-southeast,2.5,No
2018/06/10,13:30,0.317,0.200,0.321,0.309,0.297,0.158,0.097,southeast,2.2,No
2018/06/10,13:40,0.319,0.199,0.321,0.307,0.292,0.158,0.096,east-southeast,2.5,No
2018/06/10,13:50,0.319,0.200,0.321,0.310,0.297,0.157,0.096,southeast,1.4,No
2018/06/10,14:00,0.316,0.196,0.321,0.309,0.295,0.159,0.096,east-southeast,2.0,No
2018/06/10,14:10,0.319,0.199,0.322,0.306,0.298,0.158,0.097,east-southeast,3.1,No
2018/06/10,14:20,0.316,0.198,0.321,0.310,0.296,0.159,0.097,east-southeast,4.0,No
2018/06/10,14:30,0.321,0.198,0.321,0.306,0.298,0.158,0.097,southeast,3.9,No
2018/06/10,14:40,0.317,0.199,0.321,0.309,0.297,0.158,0.097,southeast,4.1,No
2018/06/10,14:50,0.318,0.200,0.322,0.305,0.295,0.159,0.097,southeast,4.8,Yes
2018/06/10,15:00,0.318,0.199,0.321,0.309,0.299,0.158,0.096,southeast,3.8,No
2018/06/10,15:10,0.317,0.199,0.323,0.306,0.293,0.159,0.097,southeast,5.5,No
2018/06/10,15:20,0.319,0.199,0.320,0.310,0.297,0.158,0.096,southeast,5.9,No
2018/06/10,15:30,0.318,0.199,0.322,0.307,0.295,0.158,0.097,southeast,7.1,No
2018/06/10,15:40,0.320,0.200,0.321,0.309,0.298,0.158,0.097,southeast,6.0,No
2018/06/10,15:50,0.318,0.199,0.323,0.308,0.297,0.158,0.097,southeast,7.2,No
2018/06/10,16:00,0.320,0.199,0.320,0.310,0.297,0.158,0.097,south-southeast,7.5,Yes
2018/06/10,16:10,0.317,0.199,0.323,0.309,0.297,0.159,0.098,southeast,6.1,Yes
2018/06/10,16:20,0.321,0.200,0.322,0.310,0.297,0.159,0.098,southeast,5.3,No
2018/06/10,16:30,0.318,0.200,0.323,0.311,0.299,0.159,0.098,south-southeast,4.6,No
2018/06/10,16:40,0.321,0.200,0.322,0.308,0.296,0.160,0.097,south,2.7,No
2018/06/10,16:50,0.318,0.200,0.323,0.310,0.299,0.158,0.097,south-southeast,3.3,No
2018/06/10,17:00,0.320,0.200,0.320,0.308,0.296,0.159,0.097,southeast,4.7,No
2018/06/10,17:10,0.319,0.199,0.325,0.311,0.299,0.159,0.098,south-southeast,3.4,Yes
2018/06/10,17:20,0.321,0.200,0.321,0.309,0.295,0.160,0.097,southeast,5.1,Yes
2018/06/10,17:30,0.320,0.201,0.325,0.311,0.300,0.160,0.098,southeast,5.8,Yes
2018/06/10,17:40,0.321,0.201,0.324,0.311,0.297,0.162,0.099,southeast,8.1,Yes
2018/06/10,17:50,0.321,0.202,0.325,0.312,0.301,0.160,0.100,southeast,7.6,Yes
2018/06/10,18:00,0.321,0.202,0.325,0.310,0.298,0.162,0.099,southeast,6.9,Yes
2018/06/10,18:10,0.322,0.203,0.324,0.311,0.301,0.161,0.100,southeast,5.7,Yes
2018/06/10,18:20,0.321,0.202,0.325,0.314,0.298,0.161,0.099,east-southeast,5.8,Yes
2018/06/10,18:30,0.320,0.203,0.324,0.312,0.300,0.161,0.101,southeast,4.8,Yes
2018/06/10,18:40,0.322,0.202,0.325,0.312,0.299,0.161,0.100,east-southeast,4.5,Yes
2018/06/10,18:50,0.321,0.202,0.324,0.311,0.300,0.162,0.101,east-southeast,3.9,Yes
2018/06/10,19:00,0.323,0.202,0.326,0.313,0.298,0.163,0.101,east-southeast,4.2,Yes
2018/06/10,19:10,0.319,0.203,0.324,0.311,0.299,0.163,0.102,east,3.4,Yes
2018/06/10,19:20,0.321,0.204,0.325,0.312,0.299,0.163,0.103,east,3.7,Yes
2018/06/10,19:30,0.319,0.203,0.324,0.311,0.298,0.163,0.102,east,3.8,Yes
2018/06/10,19:40,0.321,0.202,0.323,0.312,0.298,0.163,0.102,east,4.7,Yes
2018/06/10,19:50,0.317,0.201,0.322,0.309,0.299,0.164,0.103,east,4.8,Yes
2018/06/10,20:00,0.322,0.203,0.322,0.311,0.300,0.164,0.102,east-northeast,3.3,Yes
2018/06/10,20:10,0.318,0.203,0.323,0.310,0.299,0.164,0.102,east-northeast,3.8,Yes
2018/06/10,20:20,0.319,0.204,0.323,0.310,0.301,0.163,0.103,northeast,3.4,Yes
2018/06/10,20:30,0.319,0.204,0.324,0.310,0.299,0.164,0.102,northeast,3.8,Yes
2018/06/10,20:40,0.320,0.205,0.322,0.310,0.300,0.163,0.102,northeast,5.0,Yes
2018/06/10,20:50,0.319,0.204,0.324,0.311,0.300,0.164,0.104,northeast,3.9,Yes
2018/06/10,21:00,0.318,0.203,0.321,0.308,0.302,0.163,0.102,northeast,3.7,Yes
2018/06/10,21:10,0.317,0.204,0.322,0.309,0.298,0.164,0.103,-,CALM,Yes
2018/06/10,21:20,0.318,0.203,0.319,0.307,0.301,0.162,0.103,-,CALM,Yes
2018/06/10,21:30,0.318,0.204,0.321,0.307,0.298,0.164,0.104,-,CALM,Yes
2018/06/10,21:40,0.317,0.202,0.319,0.307,0.301,0.161,0.104,north-northeast,2.7,Yes
2018/06/10,21:50,0.316,0.202,0.320,0.308,0.297,0.162,0.104,north-northeast,3.2,Yes
2018/06/10,22:00,0.315,0.202,0.317,0.306,0.300,0.161,0.102,north-northeast,3.0,Yes
2018/06/10,22:10,0.317,0.202,0.318,0.307,0.296,0.161,0.102,north-northeast,2.7,Yes
2018/06/10,22:20,0.313,0.200,0.317,0.304,0.300,0.160,0.102,north,3.0,Yes
2018/06/10,22:30,0.316,0.200,0.316,0.306,0.297,0.161,0.101,north,3.0,Yes
2018/06/10,22:40,0.315,0.201,0.314,0.303,0.298,0.159,0.100,north,2.7,Yes
2018/06/10,22:50,0.315,0.199,0.314,0.303,0.295,0.158,0.100,north,3.1,Yes
2018/06/10,23:00,0.312,0.199,0.316,0.304,0.297,0.158,0.099,north,4.0,Yes
2018/06/10,23:10,0.314,0.197,0.316,0.303,0.295,0.156,0.098,north,3.1,Yes
2018/06/10,23:20,0.312,0.198,0.314,0.302,0.296,0.157,0.098,north-northeast,2.5,Yes
2018/06/10,23:30,0.314,0.196,0.313,0.300,0.293,0.155,0.097,north-northwest,2.9,Yes
2018/06/10,23:40,0.312,0.196,0.314,0.302,0.295,0.156,0.096,north,3.3,Yes
2018/06/10,23:50,0.313,0.196,0.312,0.300,0.294,0.155,0.096,north,2.8,Yes
